FW6381 Weather Reports


Display with metric or nautical units.
time (UTC)temp
F
wind
direction
speed
MPH
gust
MPH
rain 1hr
in
rain 24hr
in
rain mn
in
humidity
%
barometer
mb
20260504010005 54 240 10.0 23.0 0.00 0.00 0.00 53 1009.4
20260504005714 54 241 11.0 23.0 0.00 0.00 0.00 53 1009.4
20260504005003 54 247 14.0 23.0 0.00 0.00 0.00 53 1009.3
20260504004503 54 246 14.0 33.0 0.00 0.00 0.00 53 1009.3
20260504004213 54 243 14.0 33.0 0.00 0.00 0.00 54 1009.4
20260504003504 54 247 11.0 22.0 0.00 0.00 0.00 54 1009.3
20260504003003 53 250 11.0 23.0 0.00 0.00 0.00 56 1009.4
20260504002503 53 245 12.0 23.0 0.00 0.00 0.00 56 1009.3
20260504002003 53 243 13.0 24.0 0.00 0.00 0.00 56 1009.3
20260504001714 53 245 13.0 24.0 0.00 0.00 0.00 57 1009.3
20260504001004 53 249 13.0 27.0 0.00 0.00 0.00 58 1009.4
20260504000714 53 248 14.0 27.0 0.00 0.00 0.00 58 1009.4
20260504000003 53 249 11.0 27.0 0.00 0.00 0.00 58 1009.5
20260503235503 53 251 11.0 18.0 0.00 0.00 0.00 58 1009.6
20260503235003 53 253 12.0 22.0 0.00 0.00 0.00 58 1009.5
20260503234503 53 251 13.0 23.0 0.00 0.00 0.00 58 1009.6
20260503234004 53 248 14.0 24.0 0.00 0.00 0.00 58 1009.8
20260503233503 53 250 13.0 24.0 0.00 0.00 0.00 58 1009.7
20260503233003 53 251 11.0 24.0 0.00 0.00 0.00 59 1009.8
20260503232505 53 254 12.0 24.0 0.00 0.00 0.00 59 1009.7
20260503232003 53 254 13.0 23.0 0.00 0.00 0.00 60 1009.7
20260503231505 53 250 12.0 23.0 0.00 0.00 0.00 60 1009.8
20260503231003 53 252 13.0 31.0 0.00 0.00 0.00 60 1009.6
20260503230503 53 253 14.0 31.0 0.00 0.00 0.00 62 1009.8
20260503230003 53 245 15.0 31.0 0.00 0.00 0.00 60 1009.8
20260503225503 53 249 16.0 33.0 0.00 0.00 0.00 60 1009.8
20260503225003 53 252 15.0 33.0 0.00 0.00 0.00 60 1009.8
20260503224713 53 249 14.0 33.0 0.00 0.00 0.00 60 1009.8
20260503224005 53 243 14.0 28.0 0.00 0.00 0.00 60 1009.8
20260503223503 53 243 12.0 27.0 0.00 0.00 0.00 60 1009.9
20260503223003 53 241 12.0 23.0 0.00 0.00 0.00 60 1009.9
20260503222504 53 245 14.0 32.0 0.00 0.00 0.00 62 1010.0
20260503222005 52 251 15.0 32.0 0.00 0.00 0.00 63 1010.1
20260503221503 52 247 15.0 31.0 0.00 0.00 0.00 62 1010.1
20260503221214 52 245 15.0 28.0 0.00 0.00 0.00 62 1010.1
20260503220713 52 244 15.0 41.0 0.00 0.00 0.00 62 1009.9
20260503220003 52 241 17.0 41.0 0.00 0.00 0.00 62 1009.8
20260503215503 52 237 16.0 31.0 0.00 0.00 0.00 63 1009.8
20260503215005 52 235 14.0 31.0 0.00 0.00 0.00 63 1009.8
20260503214505 52 237 14.0 27.0 0.00 0.00 0.00 64 1009.8
20260503214005 52 238 14.0 31.0 0.00 0.00 0.00 64 1009.7
20260503213503 52 230 13.0 31.0 0.00 0.00 0.00 65 1009.6
20260503213003 52 228 12.0 26.0 0.00 0.00 0.00 66 1009.5
20260503212503 52 229 12.0 26.0 0.00 0.00 0.00 66 1009.4
20260503212214 52 227 12.0 28.0 0.00 0.00 0.00 66 1009.4
20260503211503 51 224 13.0 28.0 0.00 0.00 0.00 67 1009.4
20260503211003 51 228 13.0 24.0 0.00 0.00 0.00 67 1009.5
20260503210713 50 228 12.0 28.0 0.00 0.00 0.00 68 1009.6
20260503210005 50 223 12.0 28.0 0.00 0.00 0.00 67 1009.7
20260503205503 50 223 14.0 32.0 0.00 0.00 0.00 67 1009.8
20260503205003 51 227 14.0 32.0 0.00 0.00 0.00 66 1009.9
20260503204503 51 226 12.0 27.0 0.00 0.00 0.00 65 1009.9
20260503204004 51 223 13.0 27.0 0.00 0.00 0.00 66 1009.8
20260503203503 51 229 12.0 28.0 0.00 0.00 0.00 65 1009.9
20260503203003 51 228 12.0 28.0 0.00 0.00 0.00 65 1009.9
20260503202503 52 226 13.0 28.0 0.00 0.00 0.00 63 1010.0
20260503202214 52 225 12.0 28.0 0.00 0.00 0.00 64 1010.1
20260503201714 52 225 12.0 28.0 0.00 0.00 0.00 63 1010.1
20260503201003 52 223 14.0 27.0 0.00 0.00 0.00 63 1010.1
20260503200505 52 225 15.0 27.0 0.00 0.00 0.00 63 1010.1
20260503200003 52 228 15.0 28.0 0.00 0.00 0.00 60 1010.2
20260503195712 52 230 16.0 28.0 0.00 0.00 0.00 60 1010.3
20260503195213 53 233 14.0 29.0 0.00 0.00 0.00 58 1010.4
20260503194504 53 234 14.0 31.0 0.00 0.00 0.00 56 1010.3
20260503194215 54 230 14.0 31.0 0.00 0.00 0.00 57 1010.5
20260503193503 54 236 17.0 40.0 0.00 0.00 0.00 56 1010.6
20260503193003 53 241 18.0 40.0 0.00 0.00 0.00 56 1010.5
20260503192503 53 238 16.0 40.0 0.00 0.00 0.00 55 1010.8
20260503192003 53 230 17.0 32.0 0.00 0.00 0.00 56 1010.8
20260503191714 52 231 17.0 32.0 0.00 0.00 0.00 55 1010.8
20260503191003 53 243 17.0 32.0 0.00 0.00 0.00 54 1011.0
20260503190503 53 251 17.0 32.0 0.00 0.00 0.00 55 1011.0
20260503190005 53 256 17.0 32.0 0.00 0.00 0.00 53 1011.1
20260503185714 53 251 18.0 31.0 0.00 0.00 0.00 54 1011.0
20260503185213 53 247 16.0 31.0 0.00 0.00 0.00 54 1011.1
20260503184503 53 228 18.0 35.0 0.00 0.00 0.00 52 1011.1
20260503184215 53 232 19.0 35.0 0.00 0.00 0.00 52 1011.2
20260503183503 53 240 19.0 40.0 0.00 0.00 0.00 50 1011.4
20260503183003 53 232 17.0 40.0 0.00 0.00 0.00 50 1011.4
20260503182503 53 230 14.0 40.0 0.00 0.00 0.00 47 1011.5
20260503182003 53 231 14.0 32.0 0.00 0.00 0.00 47 1011.5
20260503181505 53 238 15.0 32.0 0.00 0.00 0.00 45 1011.5
20260503181005 53 241 16.0 36.0 0.00 0.00 0.00 44 1011.8
20260503180505 53 237 16.0 36.0 0.00 0.00 0.00 46 1011.8
20260503180004 53 233 16.0 35.0 0.00 0.00 0.00 45 1011.9
20260503175503 52 230 16.0 35.0 0.00 0.00 0.00 47 1011.8
20260503175003 51 233 15.0 35.0 0.00 0.00 0.00 48 1011.9
20260503174504 50 239 15.0 29.0 0.00 0.00 0.00 50 1012.1
20260503174003 50 233 15.0 29.0 0.00 0.00 0.00 54 1012.2
20260503173503 50 223 14.0 32.0 0.00 0.00 0.00 56 1012.3
20260503173005 50 226 14.0 33.0 0.00 0.00 0.00 59 1012.5
20260503172713 50 231 14.0 33.0 0.00 0.00 0.00 60 1012.6
20260503172004 50 237 13.0 24.0 0.00 0.00 0.00 62 1012.6
20260503171503 50 233 12.0 24.0 0.00 0.00 0.00 64 1012.4
20260503171003 50 231 13.0 27.0 0.00 0.00 0.00 66 1012.7
20260503170505 50 231 13.0 31.0 0.00 0.00 0.00 67 1012.8
20260503151003 50 225 12.0 26.0 0.00 0.00 0.00 66 1013.5
20260503150503 50 225 12.0 22.0 0.00 0.00 0.00 64 1013.6
20260503131003 45 231 10.0 26.0 0.00 0.00 0.00 80 1013.8
20260503130714 45 233 10.0 26.0 0.00 0.00 0.00 80 1013.9
20260503120214 40 216 4.0 14.0 0.00 0.00 0.00 92 1014.0
20260503110503 34 161 4.0 9.0 0.00 0.00 0.00 91 1014.1
20260503110214 34 159 3.0 9.0 0.00 0.00 0.00 91 1014.0
20260503090503 31 200 1.0 3.0 0.00 0.00 0.00 91 1014.2
20260503081504 32 199 1.0 4.0 0.00 0.00 0.00 91 1014.3
20260503081003 32 199 2.0 4.0 0.00 0.00 0.00 91 1014.3
20260503080714 32 199 2.0 4.0 0.00 0.00 0.00 91 1014.3
20260503072503 32 0 0.0 0.0 0.00 0.00 0.00 90 1014.2
20260503072213 33 0 0.0 0.0 0.00 0.00 0.00 90 1014.2
20260503071503 33 0 0.0 0.0 0.00 0.00 0.00 90 1014.2
20260503071003 33 0 0.0 0.0 0.00 0.00 0.00 90 1014.2
20260503070503 33 0 0.0 0.0 0.00 0.00 0.00 90 1014.2
20260503055005 35 0 0.0 0.0 0.00 0.00 0.00 84 1014.4
20260503054503 35 0 0.0 0.0 0.00 0.00 0.00 84 1014.4
20260503054003 36 0 0.0 0.0 0.00 0.00 0.00 84 1014.4
20260503053503 36 0 0.0 0.0 0.00 0.00 0.00 84 1014.5
20260503053003 36 0 0.0 0.0 0.00 0.00 0.00 83 1014.5
20260503052503 36 199 0.0 3.0 0.00 0.00 0.00 83 1014.5
20260503052005 36 199 1.0 3.0 0.00 0.00 0.00 82 1014.6
20260503051503 37 199 2.0 4.0 0.00 0.00 0.00 82 1014.7
20260503051003 37 199 2.0 4.0 0.00 0.00 0.00 82 1014.8
20260503050504 37 199 1.0 3.0 0.00 0.00 0.00 82 1014.7
20260503050003 38 199 2.0 4.0 0.00 0.00 0.00 81 1014.7
20260503045503 38 199 2.0 4.0 0.00 0.00 0.00 80 1014.8
20260503045003 38 199 2.0 3.0 0.00 0.00 0.00 80 1014.8
20260503044503 38 199 1.0 3.0 0.00 0.00 0.00 80 1014.8
20260503044003 38 199 1.0 3.0 0.00 0.00 0.00 79 1014.8
20260503043503 39 199 2.0 4.0 0.00 0.00 0.00 79 1014.9
20260503043003 39 199 2.0 5.0 0.00 0.00 0.00 78 1014.8
20260503042503 39 199 2.0 5.0 0.00 0.00 0.00 78 1014.9
20260503042004 39 199 2.0 5.0 0.00 0.00 0.00 78 1014.9
20260503041503 40 199 2.0 5.0 0.00 0.00 0.00 78 1015.0
20260503041004 40 199 2.0 6.0 0.00 0.00 0.00 77 1015.0
20260503040504 40 205 2.0 6.0 0.00 0.00 0.00 77 1015.0
20260503040215 40 210 2.0 6.0 0.00 0.00 0.00 77 1015.0
20260503035503 40 217 2.0 5.0 0.00 0.00 0.00 76 1015.0
20260503035213 40 217 2.0 4.0 0.00 0.00 0.00 76 1015.0
20260503034714 40 217 2.0 5.0 0.00 0.00 0.00 76 1015.0
20260503034003 40 217 2.0 5.0 0.00 0.00 0.00 76 1015.0
20260503033503 40 217 2.0 4.0 0.00 0.00 0.00 76 1015.0
20260503033003 40 217 2.0 4.0 0.00 0.00 0.00 76 1015.0
20260503032503 40 217 2.0 5.0 0.00 0.00 0.00 76 1015.0
20260503032003 40 217 2.0 5.0 0.00 0.00 0.00 76 1015.0
20260503031503 41 217 2.0 6.0 0.00 0.00 0.00 76 1015.0
20260503031003 41 217 2.0 6.0 0.00 0.00 0.00 76 1015.0
20260503030503 41 217 1.0 4.0 0.00 0.00 0.00 76 1015.1
20260503030213 41 217 2.0 4.0 0.00 0.00 0.00 75 1015.0
20260503025503 41 217 2.0 4.0 0.00 0.00 0.00 75 1015.1
20260503025003 41 217 2.0 4.0 0.00 0.00 0.00 75 1015.1
20260503024714 41 217 2.0 5.0 0.00 0.00 0.00 74 1015.2
20260503024215 41 217 2.0 5.0 0.00 0.00 0.00 74 1015.2
20260503023714 41 217 2.0 5.0 0.00 0.00 0.00 74 1015.1
20260503023003 41 217 2.0 5.0 0.00 0.00 0.00 72 1015.2
20260503022503 41 217 3.0 8.0 0.00 0.00 0.00 72 1015.3
20260503022005 41 216 3.0 8.0 0.00 0.00 0.00 72 1015.4
20260503021505 41 215 3.0 8.0 0.00 0.00 0.00 72 1015.4
20260503021004 41 218 4.0 10.0 0.00 0.00 0.00 71 1015.5
20260503020505 41 226 4.0 10.0 0.00 0.00 0.00 71 1015.4
20260503020003 41 252 4.0 9.0 0.00 0.00 0.00 72 1015.4
20260503015504 41 273 4.0 9.0 0.00 0.00 0.00 75 1015.5
20260503015003 41 281 4.0 9.0 0.00 0.00 0.00 74 1015.5
20260503014503 41 281 4.0 9.0 0.00 0.00 0.00 74 1015.5
20260503014005 41 276 5.0 12.0 0.00 0.00 0.00 75 1015.5
20260503013504 41 264 6.0 13.0 0.00 0.00 0.00 74 1015.5
20260503013003 41 266 6.0 13.0 0.00 0.00 0.00 74 1015.5
20260503012503 41 265 4.0 13.0 0.00 0.00 0.00 74 1015.5
20260503012003 41 248 3.0 9.0 0.00 0.00 0.00 72 1015.5
20260503011503 41 245 4.0 12.0 0.00 0.00 0.00 72 1015.4
20260503011003 41 237 5.0 12.0 0.00 0.00 0.00 72 1015.4
20260503010503 41 238 5.0 12.0 0.00 0.00 0.00 71 1015.3